Find Starlink 31510

NORAD ID: 59575 Int'l Des: 2024-076 Owner: SPXS Country: US Constellation: starlink operational
LEOCIRCULAR

当前视图

正在加载3D地球...

About Starlink 31510

Starlink 31510 (NORAD 59575) is a starlink constellation satellite (v2 mini) launched Apr 23, 2024 by SPXS of US. It operates in LEO, CIRCULAR orbit with a mass of 730.00 kg.

关于 Starlink 31510

正在加载描述...

即将过境

Passes for default location (London). Set your location on the main map for personalized predictions.

高度历史

Loading altitude history...

两行轨道根数

1 59575U 24076M 26193.52530668 -.00002721 00000-0 -89331-4 0 9998
2 59575 43.0018 20.6297 0001716 251.7452 108.3213 15.27596326125637
Epoch: Jul 12, 2026 • Age: 8 hours

当前状态

高度 487.3 km
远地点 / 近地点 N/A
速度 7.63 km/s
星下点 43.16°N, 134.42°W
发射日期 Apr 23, 2024
运行时间 2.2 years
类型 internet

技术详情

分类 Payload
质量 730.00 kg
干质量 700.00 kg
总质量 730.00 kg
长度 0.30 m
直径 4.10 m
跨度 29.00 m
形状 Box + pan
制造商 SPXS
平台类型 Starlink V2M
阶段状态 In Orbit
所有者/国家 SPXS/US

Most Searched